Date,TemperatureHighF,TemperatureAvgF,TemperatureLowF,DewpointHighF,DewpointAvgF,DewpointLowF,HumidityHigh,HumidityAvg,HumidityLow,PressureMaxIn,PressureMinIn,WindSpeedMaxMPH,WindSpeedAvgMPH,GustSpeedMaxMPH,PrecipitationSumIn
2013-1-1,37.2,31.4,24.3,37.2,31.4,24.3,100,100,100,30.24,30.01,15,2,15,0.00
2013-1-2,34.2,26.0,19.9,33.3,21.7,16.1,100,86,57,30.24,30.15,12,2,13,0.00
2013-1-3,43.5,30.8,18.5,37.7,23.1,17.1,100,75,48,30.42,30.24,10,2,14,0.00
2013-1-4,47.1,33.5,19.9,32.7,22.1,16.2,100,66,40,30.45,30.30,16,4,17,0.00
2013-1-5,42.4,35.4,25.9,32.9,28.1,18.1,95,75,66,30.30,30.15,22,5,23,0.00
2013-1-6,47.1,33.2,22.8,31.3,23.3,13.9,100,71,37,30.36,30.21,15,3,16,0.00
2013-1-7,52.0,36.7,21.9,29.2,22.8,14.9,90,60,37,30.33,30.12,20,4,21,0.00
2013-1-8,57.9,42.2,27.9,47.5,32.8,19.8,100,71,48,30.21,30.03,16,3,19,0.18
2013-1-9,54.3,50.0,46.4,50.7,44.3,36.7,100,83,55,30.33,30.21,22,7,30,0.08
2013-1-10,57.6,50.4,45.7,57.6,49.5,38.6,100,97,63,30.21,29.83,27,9,28,0.04
2013-1-11,66.2,55.5,44.4,49.4,44.9,41.4,100,71,44,29.89,29.77,30,9,32,0.00
2013-1-12,58.3,43.7,29.3,52.4,38.2,29.1,100,83,44,29.95,29.80,31,8,33,0.36
2013-1-13,29.1,22.8,16.0,29.1,19.1,13.5,100,86,69,30.33,29.95,12,9,17,0.00
2013-1-14,35.1,22.7,13.3,21.4,13.7,8.9,99,71,42,30.42,30.30,19,7,20,0.00
2013-1-15,34.9,25.1,15.4,19.8,16.1,11.6,94,70,45,30.30,30.12,16,4,17,0.00
2013-1-16,42.6,27.6,14.9,26.1,17.2,13.1,100,68,41,30.18,30.09,19,3,20,0.00
2013-1-17,49.1,34.1,23.2,32.9,23.0,14.8,84,65,42,30.48,30.18,19,3,20,0.00
2013-1-18,56.3,40.4,23.2,33.3,26.3,20.1,100,61,34,30.48,30.18,24,6,26,0.00
2013-1-19,62.8,48.0,35.8,35.8,30.4,24.5,81,52,34,30.21,30.09,23,7,26,0.00
2013-1-20,61.3,44.2,28.6,35.9,28.2,15.8,88,56,34,30.27,30.12,22,5,23,0.00
2013-1-21,39.9,29.3,21.4,17.9,14.5,11.8,67,54,40,30.36,30.24,14,7,20,0.00
2013-1-22,47.3,32.9,21.4,27.1,19.0,11.8,71,57,42,30.30,30.18,16,4,17,0.00
2013-1-23,61.7,42.6,25.9,43.0,32.6,17.9,94,69,46,30.27,30.12,19,4,20,0.00
2013-1-24,43.7,38.3,33.3,33.1,21.2,16.7,66,50,42,30.30,30.09,22,8,23,0.00
2013-1-25,50.5,38.2,30.2,38.6,29.9,23.0,100,75,48,30.24,30.09,14,2,14,0.00
2013-1-26,61.9,46.4,34.0,31.2,25.8,20.3,79,48,25,30.24,30.12,19,6,20,0.00
2013-1-27,59.5,53.9,46.9,59.0,49.5,29.7,100,86,50,30.12,29.95,26,9,27,0.00
2013-1-28,72.0,66.4,59.0,64.4,61.9,58.5,100,86,63,30.01,29.86,34,12,35,0.00
2013-1-29,68.4,60.3,46.6,66.0,58.6,46.4,100,94,83,29.86,29.50,32,9,33,1.85
2013-1-30,46.6,32.2,22.1,46.6,28.3,17.0,100,86,70,30.03,29.53,32,12,34,0.04
2013-1-31,47.8,27.1,18.7,29.6,20.3,7.4,99,77,46,30.42,30.00,24,5,26,0.00